Location: Wildlife_Club
(35.6000°N, 81.4330°W)
Time: 09:44:29
(UTC-04:00)

Daily predictions for brighter satellites

Satellite Brightness Start Highest point End
(mag) Time Altitude Azimuth Time Altitude Azimuth Time Altitude Azimuth
Meteor 1-24 Rocket 4.1 19:59:35 10° N 20:04:50 43° ENE 20:10:14 10° SSE
Cosmos 1707 2.7 20:01:53 10° N 20:05:48 79° E 20:09:39 10° S
Cosmos 405 3.6 20:03:12 10° SSW 20:06:40 61° W 20:10:10 10° N
Cosmos 1953 4.0 20:04:51 10° ESE 20:07:10 15° E 20:09:28 10° NE
Cosmos 2082 Rocket 4.0 20:06:17 10° NNE 20:09:04 14° NE 20:11:50 10° E
Cosmos 2123 Rocket 4.5 20:04:09 10° N 20:10:02 40° ENE 20:15:51 10° SSE
NOAA 12 4.2 20:06:15 10° SSE 20:11:34 87° WSW 20:16:55 10° NNW
ALOS 2.4 20:09:13 10° SSE 20:13:44 53° ENE 20:18:17 10° N
USA 215 3.9 20:13:05 10° ENE 20:18:48 32° SE 20:24:29 10° S
Meteor 2-5 Rocket 4.0 20:13:34 10° N 20:19:19 79° W 20:25:10 10° S
COSMOS 2406 3.7 20:17:10 10° NNW 20:22:52 67° WSW 20:28:29 10° S
Cosmos 1766 3.2 20:19:19 10° S 20:23:08 66° E 20:27:00 10° NNE
Spot 2 Rocket 3.9 20:19:14 10° SE 20:23:59 42° ENE 20:28:48 10° N
H-II Stage 2 2.6 20:30:01 10° SW 20:31:32 17° S 20:32:29 14° SE
Resurs 1-3 4.0 20:28:43 10° SE 20:32:52 43° ENE 20:37:02 10° N
ISS -2.1 20:32:25 10° SSE 20:34:28 16° SE 20:34:28 16° SE
BREEZE-M DEB (TANK) 3.3 20:36:57 10° WSW 20:39:29 57° NNW 20:45:10 10° NE
RESURS DK-1 2.3 20:37:28 10° NNW 20:41:37 73° ENE 20:45:41 10° SSE
Envisat 4.2 20:40:01 18° E 20:42:09 23° ENE 20:46:04 10° NNE
Cosmos 1674 4.1 20:44:48 10° NNE 20:47:22 20° ENE 20:47:22 20° ENE
Lacrosse 5 3.0 20:42:58 10° WSW 20:47:49 44° NW 20:52:39 10° NNE
Cosmos 1125 Rocket 3.5 20:44:10 10° S 20:49:13 55° ESE 20:54:19 10° NNE
Cosmos 2344 4.2 20:42:54 10° SW 20:50:27 61° NW 20:58:47 10° NNE
CZ-2D R/B 3.2 20:47:40 10° SSE 20:51:28 61° ENE 20:55:18 10° N
BREEZE-M DEB (TANK) 2.7 20:49:12 10° SW 20:51:59 57° SE 20:59:39 10° ENE
Timation 1 Rocket 4.3 20:49:14 10° SSW 20:55:12 76° ESE 21:01:14 10° NNE
Cosmos 1805 3.1 20:52:50 10° S 20:56:42 86° ESE 21:00:38 10° N
SAR-Lupe-4 3.9 20:55:34 30° SE 20:56:50 44° ENE 21:00:15 10° N
Geosat 4.0 20:53:51 10° NNE 20:58:54 89° WNW 21:03:54 10° SSW
Okean 3 Rocket 3.4 20:56:42 10° N 21:01:07 84° E 21:05:32 10° S
Tiangong 1 0.7 20:59:46 10° WNW 21:02:42 86° SSW 21:03:03 66° SE
ERS-1 Rocket 4.4 21:03:25 19° ENE 21:03:25 19° ENE 21:06:44 10° NNE
Yuri Rocket 4.2 21:01:24 10° WSW 21:05:00 27° S 21:06:15 23° SSE
In-Cosmos 22 4.1 21:00:27 10° N 21:05:46 81° W 21:11:02 10° S
Abrixas 4.1 21:04:53 10° NNW 21:06:57 22° NNE 21:06:57 22° NNE
SeaSat 1 3.4 21:05:14 10° S 21:09:57 45° WSW 21:14:41 10° NW
Cosmos 1470 3.4 21:12:27 38° ENE 21:12:27 38° ENE 21:15:30 10° NNE
SL-27 R/B 4.2 21:10:10 10° NW 21:13:25 32° WSW 21:16:40 10° SSW
USA 186 3.3 21:15:09 19° NNW 21:15:09 19° NNW 21:15:55 10° NNW
SAR-Lupe-1 3.9 21:16:04 63° SE 21:16:28 72° ENE 21:20:03 10° N
Cosmos 1340 Rocket 4.3 21:15:03 10° NNE 21:17:07 23° NE 21:17:07 23° NE
H-2A R/B (2) 3.0 21:16:28 10° WSW 21:19:28 33° S 21:20:59 28° SSE
Cosmos 1833 Rocket 3.0 21:14:44 10° N 21:20:07 45° ENE 21:21:15 40° E
Meteor 1-29 2.8 21:16:49 10° NNE 21:20:18 85° ESE 21:21:00 54° S
Cosmos 2278 Rocket 3.8 21:15:30 10° SW 21:20:41 36° WNW 21:25:54 10° N
GP-B 2.9 21:19:19 23° S 21:22:02 81° E 21:26:30 10° N
Cosmos 1076 Rocket 3.4 21:19:09 10° N 21:23:25 85° W 21:25:13 34° S
Cosmos 1818 3.5 21:17:59 10° NNW 21:23:26 69° ENE 21:25:02 45° SE
Meteor 1-4 Rocket 3.4 21:20:05 10° SSW 21:23:26 47° W 21:26:49 10° N
COSMOS 2487 3.5 21:21:18 10° N 21:23:40 34° NNE 21:23:40 34° NNE
Cosmos 2016 Rocket 4.3 21:24:19 39° ESE 21:25:05 41° E 21:30:48 10° NNE
Cosmos 1733 4.2 21:27:32 34° NNE 21:27:32 34° NNE 21:29:54 10° NNE
Resurs 01 Rocket 3.1 21:22:19 10° SSW 21:26:21 35° W 21:30:26 10° NNW
SJ-11-01 4.3 21:26:01 54° E 21:26:30 57° ENE 21:31:08 10° N
Helios 1B rocket 2.9 21:24:18 10° N 21:28:23 62° WNW 21:32:26 10° SSW
CZ-3B DEB 4.5 21:19:33 10° W 21:28:31 30° NW 21:33:18 10° NNE
Delta 2 Rocket 4.1 21:27:24 10° W 21:31:45 41° SSW 21:32:00 40° SSW
Cosmos 1269 Rocket 3.9 21:27:27 10° NNW 21:32:45 77° ENE 21:33:59 53° SE
Cosmos 1766 Rocket 3.5 21:29:06 10° N 21:33:37 87° E 21:34:17 64° SSE
SWAS 4.4 21:30:17 10° SSW 21:34:34 82° WNW 21:38:53 10° NNE
Helios 1A 3.4 21:33:37 35° SSW 21:35:11 60° WSW 21:39:20 10° NNW
Cosmos 2297 4.2 21:29:36 10° SSW 21:35:13 62° WNW 21:40:55 10° NNE
ATLAS 5 CENTAUR R/B 1.6 21:31:42 10° SSW 21:36:18 87° WNW 21:41:11 11° NNE
Cosmos 2100 Rocket 3.9 21:33:15 10° S 21:39:33 87° E 21:45:57 10° N
GPS 2-05 Rocket1 4.2 21:36:51 10° WSW 21:39:10 37° WSW 21:39:10 37° WSW
Cosmos 1953 4.2 21:39:38 10° SW 21:43:16 31° WNW 21:46:55 10° NNW
Cosmos-2242 3.3 21:44:00 41° SW 21:45:17 63° W 21:49:31 10° N
Cosmos 1939 Rocket 3.5 21:46:51 53° N 21:46:51 53° N 21:50:03 10° N
Cosmos 2082 Rocket 2.1 21:48:08 10° NNW 21:53:51 81° WSW 21:54:34 68° S
Cosmos 1802 Rocket 3.9 21:56:20 30° S 21:59:33 83° W 22:05:44 10° N
Cosmos 1271 Rocket 4.1 22:00:43 39° WNW 22:00:43 39° WNW 22:04:02 10° N
USA 215 3.6 21:55:33 10° NE 22:01:59 62° NW 22:08:22 10° WSW
Cosmos 158 Rocket 4.2 21:59:33 10° NNW 22:04:39 64° WSW 22:04:41 64° WSW
Lacrosse 5 rocket 3.7 22:05:36 10° NNW 22:06:37 16° NNW 22:06:37 16° NNW
Cosmos 2061 Rocket 4.4 22:05:02 10° SSW 22:11:18 61° W 22:17:40 10° N
Timation 2 Rocket 4.1 22:13:55 10° NNW 22:20:05 64° WSW 22:20:08 64° WSW
H-2A R/B 4.3 22:24:05 16° NNE 22:24:05 16° NNE 22:25:17 10° N
Envisat 4.2 22:20:14 34° WSW 22:20:55 36° W 22:25:35 10° NNW
USA 267 4.2 22:32:47 35° NNE 22:32:47 35° NNE 22:38:02 10° NNW
